TimeCEST,TemperatureF,Dew PointF,Humidity,Sea Level PressureIn,VisibilityMPH,Wind Direction,Wind SpeedMPH,Gust SpeedMPH,PrecipitationIn,Events,Conditions,WindDirDegrees,DateUTC
12:25 AM,48.2,37.4,66,29.77,6.2,ENE,3.5,-,N/A,,Unknown,70,2013-05-27 22:25:00
12:55 AM,46.4,37.4,71,29.77,6.2,East,5.8,-,N/A,,Unknown,90,2013-05-27 22:55:00
1:25 AM,46.4,37.4,71,29.77,6.2,East,4.6,-,N/A,,Unknown,100,2013-05-27 23:25:00
1:55 AM,44.6,37.4,76,29.77,6.2,East,4.6,-,N/A,,Unknown,90,2013-05-27 23:55:00
2:00 AM,46,36,60,29.77,28,East,4.5,,,,Partly Cloudy,90,2013-05-28 00:00:00
2:25 AM,46.4,37.4,71,29.74,6.2,East,4.6,-,N/A,,Unknown,100,2013-05-28 00:25:00
2:55 AM,48.2,37.4,66,29.74,6.2,East,6.9,-,N/A,,Unknown,90,2013-05-28 00:55:00
3:25 AM,50.0,39.2,66,29.74,6.2,East,8.1,-,N/A,,Unknown,90,2013-05-28 01:25:00
3:55 AM,50.0,41.0,71,29.71,6.2,East,8.1,-,N/A,,Unknown,90,2013-05-28 01:55:00
4:25 AM,50.0,41.0,71,29.71,6.2,East,6.9,-,N/A,,Unknown,90,2013-05-28 02:25:00
4:55 AM,50.0,42.8,76,29.71,6.2,East,8.1,-,N/A,,Unknown,90,2013-05-28 02:55:00
5:00 AM,49,43,74,29.71,9,East,8.9,,,,,90,2013-05-28 03:00:00
5:25 AM,48.2,42.8,82,29.68,6.2,East,8.1,-,N/A,,Unknown,90,2013-05-28 03:25:00
5:55 AM,50.0,44.6,82,29.68,6.2,East,9.2,-,N/A,,Unknown,90,2013-05-28 03:55:00
6:25 AM,50.0,44.6,82,29.68,6.2,East,9.2,-,N/A,,Unknown,100,2013-05-28 04:25:00
6:55 AM,51.8,44.6,76,29.68,6.2,East,10.4,-,N/A,,Unknown,100,2013-05-28 04:55:00
7:25 AM,53.6,44.6,72,29.65,6.2,East,12.7,-,N/A,,Unknown,100,2013-05-28 05:25:00
7:55 AM,53.6,44.6,72,29.65,6.2,East,13.8,-,N/A,,Unknown,100,2013-05-28 05:55:00
8:00 AM,55,45,61,29.67,11,East,11.2,,,,Partly Cloudy,100,2013-05-28 06:00:00
8:25 AM,55.4,46.4,72,29.65,6.2,East,12.7,-,N/A,,Unknown,100,2013-05-28 06:25:00
8:55 AM,57.2,46.4,67,29.65,6.2,East,11.5,-,N/A,,Unknown,100,2013-05-28 06:55:00
9:25 AM,60.8,48.2,63,29.65,6.2,East,10.4,-,N/A,,Unknown,100,2013-05-28 07:25:00
9:55 AM,62.6,48.2,59,29.65,6.2,East,12.7,-,N/A,,Unknown,100,2013-05-28 07:55:00
10:25 AM,62.6,48.2,59,29.65,6.2,East,11.5,-,N/A,,Unknown,100,2013-05-28 08:25:00
10:55 AM,64.4,48.2,56,29.62,6.2,East,13.8,-,N/A,,Unknown,100,2013-05-28 08:55:00
11:00 AM,65,49,47,29.65,9,ESE,13.4,,,,,110,2013-05-28 09:00:00
11:25 AM,66.2,50.0,56,29.62,6.2,East,12.7,-,N/A,,Unknown,90,2013-05-28 09:25:00
11:55 AM,66.2,48.2,52,29.62,6.2,ESE,11.5,-,N/A,,Unknown,120,2013-05-28 09:55:00
12:25 PM,66.2,48.2,52,29.59,6.2,East,13.8,-,N/A,,Unknown,100,2013-05-28 10:25:00
12:55 PM,68.0,48.2,49,29.59,6.2,East,15.0,-,N/A,,Unknown,100,2013-05-28 10:55:00
1:25 PM,68.0,48.2,49,29.59,6.2,East,15.0,-,N/A,,Unknown,100,2013-05-28 11:25:00
1:55 PM,68.0,46.4,46,29.56,6.2,East,18.4,-,N/A,,Unknown,90,2013-05-28 11:55:00
2:00 PM,69,47,34,29.59,15,East,17.9,,,,Partly Cloudy,90,2013-05-28 12:00:00
2:25 PM,69.8,50.0,49,29.56,6.2,East,16.1,-,N/A,,Unknown,100,2013-05-28 12:25:00
2:55 PM,69.8,48.2,46,29.56,6.2,East,17.3,-,N/A,,Unknown,100,2013-05-28 12:55:00
3:25 PM,69.8,48.2,46,29.56,6.2,East,13.8,-,N/A,,Unknown,100,2013-05-28 13:25:00
3:55 PM,68.0,46.4,46,29.53,6.2,East,17.3,-,N/A,,Unknown,90,2013-05-28 13:55:00
4:25 PM,69.8,48.2,46,29.53,6.2,East,15.0,-,N/A,,Unknown,90,2013-05-28 14:25:00
4:55 PM,69.8,48.2,46,29.53,6.2,East,16.1,-,N/A,,Unknown,90,2013-05-28 14:55:00
5:00 PM,70,49,35,29.54,16,East,15.7,,,,,90,2013-05-28 15:00:00
5:25 PM,69.8,46.4,43,29.53,6.2,East,16.1,-,N/A,,Unknown,80,2013-05-28 15:25:00
5:55 PM,69.8,46.4,43,29.53,6.2,East,15.0,-,N/A,,Unknown,90,2013-05-28 15:55:00
6:25 PM,69.8,46.4,43,29.50,6.2,East,12.7,-,N/A,,Unknown,80,2013-05-28 16:25:00
6:55 PM,69.8,46.4,43,29.50,6.2,East,16.1,-,N/A,,Unknown,80,2013-05-28 16:55:00
7:25 PM,68.0,46.4,46,29.50,6.2,East,11.5,-,N/A,,Unknown,90,2013-05-28 17:25:00
7:55 PM,59.0,51.8,77,29.53,6.2,West,15.0,-,N/A,,Unknown,260,2013-05-28 17:55:00
8:00 PM,59,51,68,29.55,17,WSW,17.9,,,,Partly Cloudy,250,2013-05-28 18:00:00
8:25 PM,59.0,51.8,77,29.53,6.2,West,11.5,-,N/A,,Unknown,260,2013-05-28 18:25:00
8:55 PM,57.2,51.8,82,29.53,6.2,WSW,10.4,-,N/A,,Unknown,250,2013-05-28 18:55:00
9:25 PM,55.4,51.8,88,29.56,6.2,West,9.2,-,N/A,,Unknown,280,2013-05-28 19:25:00
9:55 PM,53.6,51.8,94,29.56,6.2,West,8.1,-,N/A,,Unknown,270,2013-05-28 19:55:00
10:25 PM,53.6,50.0,88,29.56,6.2,WNW,6.9,-,N/A,,Unknown,290,2013-05-28 20:25:00
10:55 PM,53.6,50.0,88,29.56,6.2,WSW,8.1,-,N/A,,Unknown,240,2013-05-28 20:55:00
11:00 PM,54,51,84,29.59,14,West,6.7,,,,Overcast,270,2013-05-28 21:00:00
11:25 PM,53.6,50.0,88,29.56,6.2,West,9.2,-,N/A,,Unknown,270,2013-05-28 21:25:00
11:55 PM,53.6,50.0,88,29.56,6.2,West,5.8,-,N/A,,Unknown,280,2013-05-28 21:55:00